Москва (Северо-Восток)

Россия / Московская область     55°55′01″N   37°49′58″E
темп.,
°C
ветер,
м/с
пор.,
м/с
влажн.,
%
обл.,
%
осадки,
мм/ч
давл.,
гПа
погр.,
м
13 апреля, вт
вт1300:00+8вюв4129094 0.0 1027334
03:00+7вюв31296100 0.0 1026299
06:00+8юв31291100 0.0 1026266
09:00+12ююв41065100 0.0 1025354
12:00+17ююв5846100 0.0 1024670
15:00+19ююв5839100 0.0 10231299
18:00+18ююв49395 0.0 1022353
21:00+12юв396398 0.0 1023161
14 апреля, ср
ср1400:00+11ююв414604 0.0 1022342
03:00+9юв3107115 0.0 1022212
06:00+7юв387717 0.0 1021162
09:00+12ююв486596 0.0 1021318
12:00+17ююв4750100 0.0 1020879
15:00+18ю5736100 0.0 10181407
18:00+16ююв2644100 0.0 1018178
21:00+12юв225682 0.0 101933
15 апреля, чт
чт1500:00+9юв2266100 0.0 101819
03:00+8вюв2269100 0.0 101819
06:00+7в2271100 0.0 101727
09:00+12вюв2456100 0.0 1017227
12:00+15вюв2346100 0.0 1017606
15:00+17в2342100 0.0 10171118
18:00+15св385593 0.0 1017370
21:00+10св61382100 0.0 1018400
16 апреля, пт
пт1600:00+8св5138788 0.0 1019496
03:00+7св61288100 0.1 1019400
06:00+6св6128694 0.0 1020476
09:00+9всв697576 0.0 1020550
12:00+11всв6107070 0.2 1021728
15:00+11всв6970100 0.3 1021931
18:00+10всв61177100 0.0 1022827
21:00+8всв61383100 0.0 1022600
17 апреля, сб
сб1700:00+7всв4118199 0.0 1023570
03:00+6всв51279100 0.0 1023469
06:00+5всв5137690 0.0 1025446
09:00+8всв61165100 0.0 1025566
12:00+12всв695454 0.0 1026948
15:00+14всв68485 0.0 10261130
18:00+12всв59465 0.0 10261055
21:00+8всв512538 0.0 1028500